Погода в Панаевске

Россия / Ямало-Ненецкий автономный округ     66°44′41″N   70°05′10″E
темп.,
°C
ветер,
м/с
пор.,
м/с
влажн.,
%
обл.,
%
осадки,
мм/ч
давл.,
гПа
погр.,
м
6 марта, сб
сб623:00−16зсз339798 0.1 99621
02:00−16зсз239599 0.0 99738
05:00−17зсз239499 0.0 99821
08:00−18зсз3394100 0.0 99835
11:00−17зсз3495100 0.0 998116
14:00−16сз3594100 0.0 999216
17:00−19сз349798 0.0 99933
20:00−20сз3410096 0.0 100028
7 марта, вс
вс723:00−20сз4510098 0.0 100164
02:00−21ссз459997 0.0 100172
05:00−23с459892 0.1 100366
08:00−25с449882 0.0 100477
11:00−24с359685 0.1 1005177
14:00−24с469582 0.0 1007241
17:00−27с349671 0.0 100843
20:00−28с459782 0.0 1009112
8 марта, пн
пн823:00−30ссв359784 0.1 1009129
02:00−31с459692 0.1 1010178
05:00−32ссв469797 0.1 1010197
08:00−33ссв4697100 0.1 1009198
11:00−32с4696100 0.2 1009248
14:00−31с469599 0.1 1008289
17:00−32с5795100 0.1 1008282
20:00−33с479692 0.1 1007208
9 марта, вт
вт923:00−35ссз469688 0.1 1007138
02:00−36ссз449677 0.0 100755
05:00−36сз349663 0.0 100758
08:00−36сз349634 0.0 100830
11:00−33зсз359627 0.0 1008154
14:00−30з359437 0.0 1009191
17:00−32з349419 0.0 100928
20:00−34зюз349310 0.0 100920
10 марта, ср
ср1023:00−35юз34907 0.0 100819
02:00−35юз44911 0.0 100735
05:00−34юз458841 0.0 100678
08:00−34ююз589082 0.0 1004178
11:00−30ююз7109191 0.0 1002281
14:00−26юз71296100 0.1 1001507
17:00−22зюз71095100 0.4 999722
20:00−25сз3498100 0.2 999105